Home   Weather   Victorville   Past weeks

Flag for USA Past Weather in Victorville, California, USA — Yesterday and Last 2 Weeks

Now
75 °F

Sunny.


Feels Like: 77 °F
Forecast: 68 / 91 °F
Wind: No wind

Location: George Air Force Base / Victorvi

Current Time: Jul 24, 2017 at 7:31:48 am

Latest Report: Jul 24, 2017 at 6:55 am


Visibility: 10 mi

Pressure: 29.95 "Hg (27.22 "Hg at 830m altitude)

Humidity: 29%

Dew Point: 41 °F

Location of VictorvilleLocation

Past Weather in Victorville — Graph

°F

Victorville Temperature Yesterday

Maximum temperature yesterday: 102 °F (at 2:15 pm)
Minimum temperature yesterday: 72 °F (at 4:15 am)
Average temperature yesterday: 87 °F

High & Low Weather Summary for the Past Weeks

 TemperatureHumidityPressure
High106 °F (Jul 15, 2:55 pm)53% (Jul 12, 2:35 am)30.10 "Hg (Jul 12, 2:35 am)
Low63 °F (Jul 21, 5:35 am)4% (Jul 21, 1:15 pm)29.84 "Hg (Jul 23, 4:35 pm)
Average86 °F24%29.99 "Hg
* Reported Jul 9 5:15 am — Jul 24 5:55 am, Victorville. Weather by CustomWeather, © 2017

Note: Actual official high and low records may vary slightly from our data, if they occured in-between our weather recording intervals... More about our weather records

Advertising

Victorville Weather History for the Previous 24 Hours

Scroll right to see more
 ConditionsComfort  
Time TempWeatherWind HumidityBarometerVisibility
5:55 am
Mon, Jul 24
73 °FSunny.No wind36%29.94 "Hg10 mi
5:35 am73 °FClear.12 mph38%29.94 "Hg10 mi
4:55 am75 °FClear.9 mph34%29.93 "Hg10 mi
4:35 am75 °FClear.7 mph36%29.92 "Hg10 mi
4:15 am75 °FClear.No wind34%29.92 "Hg10 mi
3:35 am73 °FClear.No wind38%29.93 "Hg5 mi
2:55 am73 °FClear.No wind41%29.93 "Hg10 mi
2:35 am75 °FPassing clouds.3 mph36%29.93 "Hg10 mi
2:15 am77 °FPassing clouds.8 mph34%29.94 "Hg10 mi
1:55 am75 °FClear.8 mph34%29.94 "Hg7 mi
1:35 am75 °FClear.10 mph36%29.94 "Hg10 mi
1:15 am77 °FClear.10 mph36%29.93 "Hg10 mi
12:55 am77 °FClear.12 mph36%29.93 "Hg10 mi
12:35 am77 °FClear.10 mph39%29.93 "Hg10 mi
11:55 pm
Sun, Jul 23
77 °FClear.No wind32%29.93 "Hg10 mi
11:35 pm79 °FClear.No wind30%29.94 "Hg10 mi
10:55 pm81 °FClear.No wind26%29.93 "Hg10 mi
10:35 pm82 °FClear.No wind21%29.93 "Hg10 mi
9:35 pm82 °FClear.13 mph23%29.92 "Hg10 mi
9:15 pm84 °FClear.13 mph25%29.91 "Hg10 mi
8:55 pm84 °FClear.10 mph27%29.90 "Hg10 mi
8:35 pm86 °FClear.9 mph25%29.90 "Hg10 mi
8:15 pm88 °FClear.7 mph24%29.89 "Hg10 mi
7:55 pm90 °FSunny.12 mph24%29.87 "Hg10 mi
7:35 pm91 °FSunny.10 mph24%29.86 "Hg10 mi
6:55 pm97 °FSunny.14 mph19%29.85 "Hg10 mi
6:35 pm97 °FSunny.15 mph20%29.84 "Hg10 mi
5:55 pm99 °FSunny.14 mph17%29.84 "Hg10 mi
5:15 pm100 °FSunny.20 mph16%29.84 "Hg10 mi
4:55 pm102 °FSunny.18 mph15%29.84 "Hg10 mi
4:35 pm102 °FSunny.14 mph15%29.84 "Hg10 mi
3:55 pm102 °FScattered clouds.14 mph15%29.85 "Hg10 mi
3:35 pm102 °FScattered clouds.10 mph15%29.86 "Hg10 mi
3:15 pm102 °FScattered clouds.14 mph15%29.87 "Hg10 mi
2:55 pm102 °FScattered clouds.13 mph15%29.87 "Hg10 mi
2:35 pm102 °FScattered clouds.6 mph14%29.89 "Hg10 mi
2:15 pm102 °FScattered clouds.6 mph14%29.89 "Hg10 mi
1:55 pm100 °FScattered clouds.No wind15%29.90 "Hg10 mi
1:35 pm100 °FScattered clouds.3 mph15%29.91 "Hg10 mi
1:15 pm100 °FScattered clouds.No wind15%29.92 "Hg10 mi
12:55 pm100 °FScattered clouds.6 mph15%29.92 "Hg10 mi
12:35 pm99 °FScattered clouds.No wind16%29.93 "Hg10 mi
11:55 am97 °FScattered clouds.3 mph17%29.94 "Hg10 mi
11:35 am99 °FScattered clouds.3 mph15%29.95 "Hg10 mi
10:55 am95 °FScattered clouds.No wind15%29.95 "Hg10 mi
10:35 am93 °FScattered clouds.No wind16%29.96 "Hg10 mi
10:15 am91 °FSunny.No wind16%29.96 "Hg10 mi
9:55 am91 °FSunny.No wind16%29.96 "Hg10 mi
9:35 am91 °FSunny.No wind16%29.96 "Hg10 mi
8:35 am84 °FSunny.7 mph20%29.97 "Hg10 mi
8:15 am82 °FSunny.9 mph19%29.97 "Hg10 mi
7:55 am82 °FSunny.8 mph16%29.96 "Hg10 mi
7:35 am81 °FSunny.8 mph21%29.96 "Hg10 mi
7:15 am79 °FSunny.8 mph21%29.96 "Hg10 mi
Weather by CustomWeather, © 2017

See weather overviewHow to use our weather pages